Time,TemperatureF,DewpointF,PressureIn,WindDirection,WindDirectionDegrees,WindSpeedMPH,WindSpeedGustMPH,Humidity,HourlyPrecipIn,Conditions,Clouds,dailyrainin,SoftwareType,DateUTC
2013-05-31 00:00:00,76.3,67.7,29.88,East,100,0.0,7.0,75,0.00,,,0.00,Weather View 32 v70,2013-05-31 05:00:00,
2013-05-31 00:10:00,76.3,67.7,29.88,East,90,0.0,7.0,75,0.00,,,0.00,Weather View 32 v70,2013-05-31 05:10:00,
2013-05-31 00:20:00,76.3,67.7,29.88,East,89,2.0,7.0,75,0.00,,,0.00,Weather View 32 v70,2013-05-31 05:20:00,
2013-05-31 00:25:00,76.3,67.7,29.88,East,92,3.0,7.0,75,0.00,,,0.00,Weather View 32 v70,2013-05-31 05:25:00,
2013-05-31 00:30:00,76.3,67.7,29.88,ENE,76,0.0,7.0,75,0.00,,,0.00,Weather View 32 v70,2013-05-31 05:30:00,
2013-05-31 00:40:00,76.3,68.1,29.88,ESE,103,0.0,7.0,76,0.00,,,0.00,Weather View 32 v70,2013-05-31 05:40:00,
2013-05-31 00:50:00,76.3,68.1,29.88,East,99,4.0,7.0,76,0.00,,,0.00,Weather View 32 v70,2013-05-31 05:50:00,
2013-05-31 01:00:00,76.3,68.1,29.88,East,80,4.0,7.0,76,0.00,,,0.00,Weather View 32 v70,2013-05-31 06:00:00,
2013-05-31 01:10:00,76.3,68.1,29.88,ENE,72,0.0,7.0,76,0.00,,,0.00,Weather View 32 v70,2013-05-31 06:10:00,
2013-05-31 01:20:00,76.1,68.0,29.88,ESE,105,3.0,8.0,76,0.00,,,0.00,Weather View 32 v70,2013-05-31 06:20:00,
2013-05-31 01:30:00,76.3,68.1,29.85,East,88,3.0,8.0,76,0.00,,,0.00,Weather View 32 v70,2013-05-31 06:30:00,
2013-05-31 01:35:00,76.3,68.1,29.85,East,93,0.0,8.0,76,0.00,,,0.00,Weather View 32 v70,2013-05-31 06:35:00,
2013-05-31 01:40:00,76.3,68.1,29.85,ESE,113,0.0,8.0,76,0.00,,,0.00,Weather View 32 v70,2013-05-31 06:40:00,
2013-05-31 01:50:00,76.1,68.0,29.85,ENE,77,3.0,8.0,76,0.00,,,0.00,Weather View 32 v70,2013-05-31 06:50:00,
2013-05-31 02:00:00,76.1,68.0,29.85,ENE,73,0.0,8.0,76,0.00,,,0.00,Weather View 32 v70,2013-05-31 07:00:00,
2013-05-31 02:10:00,76.1,68.0,29.85,East,88,2.0,8.0,76,0.00,,,0.00,Weather View 32 v70,2013-05-31 07:10:00,
2013-05-31 02:20:00,76.1,68.0,29.85,East,79,4.0,6.0,76,0.00,,,0.00,Weather View 32 v70,2013-05-31 07:20:00,
2013-05-31 02:25:00,76.1,68.0,29.85,East,80,0.0,6.0,76,0.00,,,0.00,Weather View 32 v70,2013-05-31 07:25:00,
2013-05-31 02:30:00,76.1,68.0,29.85,East,85,0.0,6.0,76,0.00,,,0.00,Weather View 32 v70,2013-05-31 07:30:00,
2013-05-31 02:40:00,76.1,68.0,29.85,East,83,0.0,6.0,76,0.00,,,0.00,Weather View 32 v70,2013-05-31 07:40:00,
2013-05-31 02:50:00,75.9,67.8,29.85,East,83,0.0,6.0,76,0.00,,,0.00,Weather View 32 v70,2013-05-31 07:50:00,
2013-05-31 03:00:00,75.9,67.8,29.85,East,84,3.0,6.0,76,0.00,,,0.00,Weather View 32 v70,2013-05-31 08:00:00,
2013-05-31 03:10:00,75.7,68.0,29.83,East,86,0.0,5.0,77,0.00,,,0.00,Weather View 32 v70,2013-05-31 08:10:00,
2013-05-31 03:20:00,75.7,68.0,29.83,East,90,3.0,5.0,77,0.00,,,0.00,Weather View 32 v70,2013-05-31 08:20:00,
2013-05-31 03:30:00,75.7,68.0,29.83,East,89,4.0,4.0,77,0.00,,,0.00,Weather View 32 v70,2013-05-31 08:30:00,
2013-05-31 03:40:00,75.7,68.4,29.85,East,85,3.0,4.0,78,0.00,,,0.00,Weather View 32 v70,2013-05-31 08:40:00,
2013-05-31 03:50:00,75.7,68.4,29.85,East,92,0.0,4.0,78,0.00,,,0.00,Weather View 32 v70,2013-05-31 08:50:00,
2013-05-31 03:55:00,75.7,68.4,29.83,East,79,0.0,6.0,78,0.00,,,0.00,Weather View 32 v70,2013-05-31 08:55:00,
2013-05-31 04:00:00,75.7,68.4,29.83,East,83,0.0,6.0,78,0.00,,,0.00,Weather View 32 v70,2013-05-31 09:00:00,
2013-05-31 04:10:00,75.7,68.4,29.83,East,97,3.0,6.0,78,0.00,,,0.00,Weather View 32 v70,2013-05-31 09:10:00,
2013-05-31 04:15:00,75.9,68.5,29.83,East,92,4.0,6.0,78,0.00,,,0.00,Weather View 32 v70,2013-05-31 09:15:00,
2013-05-31 04:20:00,75.9,68.5,29.83,East,93,0.0,6.0,78,0.00,,,0.00,Weather View 32 v70,2013-05-31 09:20:00,
2013-05-31 04:25:00,75.9,68.5,29.83,East,91,0.0,6.0,78,0.00,,,0.00,Weather View 32 v70,2013-05-31 09:25:00,
2013-05-31 04:30:00,75.9,68.5,29.83,East,82,0.0,6.0,78,0.00,,,0.00,Weather View 32 v70,2013-05-31 09:30:00,
2013-05-31 04:40:00,75.9,68.5,29.83,East,84,0.0,6.0,78,0.00,,,0.00,Weather View 32 v70,2013-05-31 09:40:00,
2013-05-31 04:45:00,75.9,68.5,29.83,East,80,3.0,6.0,78,0.00,,,0.00,Weather View 32 v70,2013-05-31 09:45:00,
2013-05-31 04:50:00,76.1,68.7,29.83,East,80,0.0,6.0,78,0.00,,,0.00,Weather View 32 v70,2013-05-31 09:50:00,
2013-05-31 04:55:00,76.1,68.7,29.85,East,81,0.0,5.0,78,0.00,,,0.00,Weather View 32 v70,2013-05-31 09:55:00,
2013-05-31 05:05:00,75.9,68.5,29.85,East,94,2.0,5.0,78,0.00,,,0.00,Weather View 32 v70,2013-05-31 10:05:00,
2013-05-31 05:10:00,75.9,68.5,29.85,East,84,4.0,5.0,78,0.00,,,0.00,Weather View 32 v70,2013-05-31 10:10:00,
2013-05-31 05:20:00,75.9,68.5,29.85,East,88,3.0,5.0,78,0.00,,,0.00,Weather View 32 v70,2013-05-31 10:20:00,
2013-05-31 05:30:00,76.1,69.1,29.85,East,86,0.0,5.0,79,0.00,,,0.00,Weather View 32 v70,2013-05-31 10:30:00,
2013-05-31 05:40:00,76.1,69.1,29.85,East,87,0.0,5.0,79,0.00,,,0.00,Weather View 32 v70,2013-05-31 10:40:00,
2013-05-31 05:50:00,76.1,69.1,29.85,East,87,0.0,5.0,79,0.00,,,0.00,Weather View 32 v70,2013-05-31 10:50:00,
2013-05-31 05:55:00,76.1,69.1,29.85,East,84,0.0,7.0,79,0.00,,,0.00,Weather View 32 v70,2013-05-31 10:55:00,
2013-05-31 06:00:00,76.1,69.1,29.85,East,87,0.0,7.0,79,0.00,,,0.00,Weather View 32 v70,2013-05-31 11:00:00,
2013-05-31 06:05:00,76.1,69.1,29.85,East,87,0.0,7.0,79,0.00,,,0.00,Weather View 32 v70,2013-05-31 11:05:00,
2013-05-31 06:10:00,76.1,69.1,29.85,East,87,0.0,7.0,79,0.00,,,0.00,Weather View 32 v70,2013-05-31 11:10:00,
2013-05-31 06:15:00,76.1,69.1,29.85,East,88,0.0,7.0,79,0.00,,,0.00,Weather View 32 v70,2013-05-31 11:15:00,
2013-05-31 06:25:00,75.9,68.9,29.88,East,88,0.0,7.0,79,0.00,,,0.00,Weather View 32 v70,2013-05-31 11:25:00,
2013-05-31 06:30:00,75.9,68.9,29.88,East,88,0.0,7.0,79,0.00,,,0.00,Weather View 32 v70,2013-05-31 11:30:00,
2013-05-31 06:40:00,75.9,69.3,29.88,East,88,0.0,7.0,80,0.00,,,0.00,Weather View 32 v70,2013-05-31 11:40:00,
2013-05-31 06:45:00,75.7,69.1,29.88,East,88,0.0,7.0,80,0.00,,,0.00,Weather View 32 v70,2013-05-31 11:45:00,
2013-05-31 06:50:00,75.7,69.1,29.88,East,88,0.0,7.0,80,0.00,,,0.00,Weather View 32 v70,2013-05-31 11:50:00,
2013-05-31 07:00:00,75.7,69.1,29.88,East,88,0.0,0.0,80,0.00,,,0.00,Weather View 32 v70,2013-05-31 12:00:00,
2013-05-31 07:10:00,75.7,69.5,29.88,East,97,0.0,3.0,81,0.00,,,0.00,Weather View 32 v70,2013-05-31 12:10:00,
2013-05-31 07:15:00,75.9,69.6,29.88,East,95,0.0,3.0,81,0.00,,,0.00,Weather View 32 v70,2013-05-31 12:15:00,
2013-05-31 07:25:00,76.3,70.0,29.88,East,87,0.0,3.0,81,0.00,,,0.00,Weather View 32 v70,2013-05-31 12:25:00,
2013-05-31 07:30:00,76.5,70.2,29.88,East,87,0.0,3.0,81,0.00,,,0.00,Weather View 32 v70,2013-05-31 12:30:00,
2013-05-31 07:35:00,76.6,70.3,29.88,East,87,0.0,3.0,81,0.00,,,0.00,Weather View 32 v70,2013-05-31 12:35:00,
2013-05-31 07:40:00,76.8,70.5,29.88,East,87,0.0,3.0,81,0.00,,,0.00,Weather View 32 v70,2013-05-31 12:40:00,
2013-05-31 07:45:00,77.0,70.7,29.88,East,86,0.0,4.0,81,0.00,,,0.00,Weather View 32 v70,2013-05-31 12:45:00,
2013-05-31 07:50:00,77.0,70.7,29.88,East,86,0.0,4.0,81,0.00,,,0.00,Weather View 32 v70,2013-05-31 12:50:00,
2013-05-31 07:55:00,77.4,71.0,29.88,East,86,0.0,4.0,81,0.00,,,0.00,Weather View 32 v70,2013-05-31 12:55:00,
2013-05-31 08:00:00,77.5,71.2,29.88,East,89,0.0,5.0,81,0.00,,,0.00,Weather View 32 v70,2013-05-31 13:00:00,
2013-05-31 08:10:00,77.2,70.5,29.88,East,84,0.0,5.0,80,0.00,,,0.00,Weather View 32 v70,2013-05-31 13:10:00,
2013-05-31 08:16:00,77.5,70.9,29.88,East,83,0.0,5.0,80,0.00,,,0.00,Weather View 32 v70,2013-05-31 13:16:00,
2013-05-31 08:25:00,77.7,71.0,29.91,East,84,3.0,5.0,80,0.00,,,0.00,Weather View 32 v70,2013-05-31 13:25:00,
2013-05-31 08:30:00,77.5,70.9,29.91,East,84,0.0,5.0,80,0.00,,,0.00,Weather View 32 v70,2013-05-31 13:30:00,
2013-05-31 08:35:00,77.4,70.7,29.91,East,83,0.0,5.0,80,0.00,,,0.00,Weather View 32 v70,2013-05-31 13:35:00,
2013-05-31 08:40:00,77.5,70.9,29.91,East,83,0.0,5.0,80,0.00,,,0.00,Weather View 32 v70,2013-05-31 13:40:00,
2013-05-31 08:45:00,77.5,70.5,29.91,East,86,3.0,5.0,79,0.00,,,0.00,Weather View 32 v70,2013-05-31 13:45:00,
2013-05-31 08:50:00,77.4,70.3,29.91,East,89,0.0,5.0,79,0.00,,,0.00,Weather View 32 v70,2013-05-31 13:50:00,
2013-05-31 08:55:00,77.5,70.5,29.91,East,89,0.0,5.0,79,0.00,,,0.00,Weather View 32 v70,2013-05-31 13:55:00,
2013-05-31 09:00:00,77.7,71.0,29.91,East,86,0.0,5.0,80,0.00,,,0.00,Weather View 32 v70,2013-05-31 14:00:00,
2013-05-31 09:05:00,77.7,71.0,29.91,East,92,0.0,5.0,80,0.00,,,0.00,Weather View 32 v70,2013-05-31 14:05:00,
2013-05-31 09:10:00,77.5,70.5,29.91,East,85,0.0,5.0,79,0.00,,,0.00,Weather View 32 v70,2013-05-31 14:10:00,
2013-05-31 09:15:00,77.5,70.9,29.91,East,87,0.0,5.0,80,0.00,,,0.00,Weather View 32 v70,2013-05-31 14:15:00,
2013-05-31 09:20:00,77.7,71.0,29.91,East,88,0.0,5.0,80,0.00,,,0.00,Weather View 32 v70,2013-05-31 14:20:00,
2013-05-31 09:25:00,78.3,71.6,29.91,East,88,4.0,5.0,80,0.00,,,0.00,Weather View 32 v70,2013-05-31 14:25:00,
2013-05-31 09:30:00,78.4,71.7,29.91,East,87,0.0,5.0,80,0.00,,,0.00,Weather View 32 v70,2013-05-31 14:30:00,
2013-05-31 09:40:00,78.8,71.7,29.91,SSE,154,0.0,6.0,79,0.00,,,0.00,Weather View 32 v70,2013-05-31 14:40:00,
2013-05-31 09:45:00,79.2,71.7,29.91,ESE,107,0.0,6.0,78,0.00,,,0.00,Weather View 32 v70,2013-05-31 14:45:00,
2013-05-31 09:50:00,79.2,71.3,29.91,East,98,5.0,6.0,77,0.00,,,0.00,Weather View 32 v70,2013-05-31 14:50:00,
2013-05-31 10:00:00,80.1,71.4,29.91,East,84,5.0,6.0,75,0.00,,,0.00,Weather View 32 v70,2013-05-31 15:00:00,
2013-05-31 10:05:00,80.2,70.8,29.91,East,85,3.0,6.0,73,0.00,,,0.00,Weather View 32 v70,2013-05-31 15:05:00,
2013-05-31 10:10:00,80.4,70.5,29.91,East,93,0.0,6.0,72,0.00,,,0.00,Weather View 32 v70,2013-05-31 15:10:00,
2013-05-31 10:15:00,80.6,70.3,29.91,East,93,4.0,6.0,71,0.00,,,0.00,Weather View 32 v70,2013-05-31 15:15:00,
2013-05-31 10:20:00,80.6,69.4,29.91,East,94,3.0,6.0,69,0.00,,,0.00,Weather View 32 v70,2013-05-31 15:20:00,
2013-05-31 10:30:00,81.3,69.7,29.91,East,92,2.0,6.0,68,0.00,,,0.00,Weather View 32 v70,2013-05-31 15:30:00,
2013-05-31 10:40:00,81.5,69.4,29.88,East,89,4.0,6.0,67,0.00,,,0.00,Weather View 32 v70,2013-05-31 15:40:00,
2013-05-31 10:50:00,81.7,68.7,29.88,East,92,0.0,6.0,65,0.00,,,0.00,Weather View 32 v70,2013-05-31 15:50:00,
2013-05-31 11:00:00,81.7,68.7,29.88,ESE,107,3.0,6.0,65,0.00,,,0.00,Weather View 32 v70,2013-05-31 16:00:00,
2013-05-31 11:10:00,82.4,69.8,29.88,East,93,6.0,6.0,66,0.00,,,0.00,Weather View 32 v70,2013-05-31 16:10:00,
2013-05-31 11:17:00,81.9,68.9,29.88,East,86,0.0,6.0,65,0.00,,,0.00,Weather View 32 v70,2013-05-31 16:17:00,
2013-05-31 11:25:00,80.6,69.0,29.88,East,84,3.0,6.0,68,0.00,,,0.00,Weather View 32 v70,2013-05-31 16:25:00,
2013-05-31 11:30:00,80.6,69.9,29.88,East,90,0.0,6.0,70,0.00,,,0.00,Weather View 32 v70,2013-05-31 16:30:00,
2013-05-31 11:40:00,81.5,69.9,29.88,East,94,3.0,6.0,68,0.00,,,0.00,Weather View 32 v70,2013-05-31 16:40:00,
2013-05-31 11:45:00,81.7,69.6,29.88,East,89,3.0,6.0,67,0.00,,,0.00,Weather View 32 v70,2013-05-31 16:45:00,
2013-05-31 11:50:00,81.7,69.2,29.88,East,85,3.0,6.0,66,0.00,,,0.00,Weather View 32 v70,2013-05-31 16:50:00,
2013-05-31 12:00:00,81.7,68.3,29.88,East,89,3.0,6.0,64,0.00,,,0.00,Weather View 32 v70,2013-05-31 17:00:00,
2013-05-31 12:10:00,81.5,69.0,29.88,East,93,3.0,6.0,66,0.00,,,0.00,Weather View 32 v70,2013-05-31 17:10:00,
2013-05-31 12:18:00,81.5,68.5,29.88,NE,48,5.0,6.0,65,0.00,,,0.00,Weather View 32 v70,2013-05-31 17:18:00,
2013-05-31 12:25:00,81.0,68.0,29.88,ENE,71,6.0,6.0,65,0.00,,,0.00,Weather View 32 v70,2013-05-31 17:25:00,
2013-05-31 12:30:00,80.8,68.3,29.88,East,81,3.0,6.0,66,0.00,,,0.00,Weather View 32 v70,2013-05-31 17:30:00,
2013-05-31 12:40:00,81.7,68.7,29.88,East,91,0.0,6.0,65,0.00,,,0.00,Weather View 32 v70,2013-05-31 17:40:00,
2013-05-31 12:45:00,81.5,68.1,29.88,East,91,3.0,6.0,64,0.00,,,0.00,Weather View 32 v70,2013-05-31 17:45:00,
2013-05-31 12:50:00,81.3,67.9,29.88,East,84,3.0,8.0,64,0.00,,,0.00,Weather View 32 v70,2013-05-31 17:50:00,
2013-05-31 13:00:00,81.3,67.9,29.88,ENE,75,4.0,8.0,64,0.00,,,0.00,Weather View 32 v70,2013-05-31 18:00:00,
2013-05-31 13:05:00,81.9,68.4,29.88,SE,141,4.0,8.0,64,0.00,,,0.00,Weather View 32 v70,2013-05-31 18:05:00,
2013-05-31 13:10:00,82.4,68.5,29.88,ESE,104,6.0,8.0,63,0.00,,,0.00,Weather View 32 v70,2013-05-31 18:10:00,
2013-05-31 13:19:00,82.4,68.0,29.88,East,85,3.0,8.0,62,0.00,,,0.00,Weather View 32 v70,2013-05-31 18:19:00,
2013-05-31 13:25:00,81.7,68.3,29.88,East,87,3.0,8.0,64,0.00,,,0.00,Weather View 32 v70,2013-05-31 18:25:00,
2013-05-31 13:30:00,81.7,68.3,29.88,East,98,3.0,8.0,64,0.00,,,0.00,Weather View 32 v70,2013-05-31 18:30:00,
2013-05-31 13:35:00,81.7,68.3,29.88,East,88,4.0,8.0,64,0.00,,,0.00,Weather View 32 v70,2013-05-31 18:35:00,
2013-05-31 13:40:00,81.7,68.3,29.88,ENE,62,4.0,8.0,64,0.00,,,0.00,Weather View 32 v70,2013-05-31 18:40:00,
2013-05-31 13:50:00,81.3,67.5,29.88,East,85,3.0,8.0,63,0.00,,,0.00,Weather View 32 v70,2013-05-31 18:50:00,
2013-05-31 13:55:00,81.9,68.4,29.88,ESE,102,4.0,8.0,64,0.00,,,0.00,Weather View 32 v70,2013-05-31 18:55:00,
2013-05-31 14:05:00,81.7,67.3,29.88,East,84,3.0,8.0,62,0.00,,,0.00,Weather View 32 v70,2013-05-31 19:05:00,
2013-05-31 14:10:00,81.1,67.3,29.88,East,87,3.0,8.0,63,0.00,,,0.00,Weather View 32 v70,2013-05-31 19:10:00,
2013-05-31 14:19:00,80.8,67.4,29.88,East,90,0.0,8.0,64,0.00,,,0.00,Weather View 32 v70,2013-05-31 19:19:00,
2013-05-31 14:25:00,82.0,67.7,29.88,East,83,4.0,8.0,62,0.00,,,0.00,Weather View 32 v70,2013-05-31 19:25:00,
2013-05-31 14:30:00,82.4,67.5,29.88,ENE,69,3.0,8.0,61,0.00,,,0.00,Weather View 32 v70,2013-05-31 19:30:00,
2013-05-31 14:35:00,82.0,66.7,29.88,East,97,6.0,8.0,60,0.00,,,0.00,Weather View 32 v70,2013-05-31 19:35:00,
2013-05-31 14:40:00,81.7,67.3,29.88,East,95,2.0,8.0,62,0.00,,,0.00,Weather View 32 v70,2013-05-31 19:40:00,
2013-05-31 14:50:00,81.3,67.0,29.88,East,91,4.0,8.0,62,0.00,,,0.00,Weather View 32 v70,2013-05-31 19:50:00,
2013-05-31 15:00:00,81.5,67.6,29.88,East,91,3.0,8.0,63,0.00,,,0.00,Weather View 32 v70,2013-05-31 20:00:00,
2013-05-31 15:10:00,82.2,67.8,29.88,SE,142,3.0,8.0,62,0.00,,,0.00,Weather View 32 v70,2013-05-31 20:10:00,
2013-05-31 15:20:00,82.6,66.2,29.88,East,97,6.0,8.0,58,0.00,,,0.00,Weather View 32 v70,2013-05-31 20:20:00,
2013-05-31 15:30:00,81.7,66.9,29.85,East,82,3.0,8.0,61,0.00,,,0.00,Weather View 32 v70,2013-05-31 20:30:00,
2013-05-31 15:40:00,82.2,67.8,29.85,ESE,123,6.0,8.0,62,0.00,,,0.00,Weather View 32 v70,2013-05-31 20:40:00,
2013-05-31 15:45:00,82.2,67.4,29.85,SE,128,3.0,8.0,61,0.00,,,0.00,Weather View 32 v70,2013-05-31 20:45:00,
2013-05-31 15:50:00,82.4,67.5,29.85,East,101,0.0,8.0,61,0.00,,,0.00,Weather View 32 v70,2013-05-31 20:50:00,
2013-05-31 15:55:00,82.4,67.1,29.85,East,89,4.0,8.0,60,0.00,,,0.00,Weather View 32 v70,2013-05-31 20:55:00,
2013-05-31 16:00:00,82.6,67.2,29.85,ENE,59,6.0,8.0,60,0.00,,,0.00,Weather View 32 v70,2013-05-31 21:00:00,
2013-05-31 16:10:00,82.4,66.6,29.85,East,88,0.0,8.0,59,0.00,,,0.00,Weather View 32 v70,2013-05-31 21:10:00,
2013-05-31 16:15:00,82.2,67.4,29.85,East,90,0.0,8.0,61,0.00,,,0.00,Weather View 32 v70,2013-05-31 21:15:00,
2013-05-31 16:20:00,81.9,67.0,29.85,East,97,3.0,8.0,61,0.00,,,0.00,Weather View 32 v70,2013-05-31 21:20:00,
2013-05-31 16:25:00,81.3,67.0,29.85,East,86,3.0,8.0,62,0.00,,,0.00,Weather View 32 v70,2013-05-31 21:25:00,
2013-05-31 16:30:00,80.8,67.0,29.85,East,99,3.0,6.0,63,0.00,,,0.00,Weather View 32 v70,2013-05-31 21:30:00,
2013-05-31 16:35:00,80.6,67.2,29.85,East,89,3.0,6.0,64,0.00,,,0.00,Weather View 32 v70,2013-05-31 21:35:00,
2013-05-31 16:40:00,80.4,67.5,29.85,East,94,3.0,6.0,65,0.00,,,0.00,Weather View 32 v70,2013-05-31 21:40:00,
2013-05-31 16:50:00,80.4,67.5,29.85,East,92,0.0,6.0,65,0.00,,,0.00,Weather View 32 v70,2013-05-31 21:50:00,
2013-05-31 17:00:00,80.1,67.6,29.85,East,86,3.0,6.0,66,0.00,,,0.00,Weather View 32 v70,2013-05-31 22:00:00,
2013-05-31 17:10:00,79.7,67.3,29.85,ENE,73,4.0,7.0,66,0.00,,,0.00,Weather View 32 v70,2013-05-31 22:10:00,
2013-05-31 17:15:00,79.7,67.3,29.85,East,89,3.0,7.0,66,0.00,,,0.00,Weather View 32 v70,2013-05-31 22:15:00,
2013-05-31 17:20:00,79.9,67.9,29.85,East,83,4.0,7.0,67,0.00,,,0.00,Weather View 32 v70,2013-05-31 22:20:00,
2013-05-31 17:30:00,79.7,67.3,29.85,ENE,76,3.0,8.0,66,0.00,,,0.00,Weather View 32 v70,2013-05-31 22:30:00,
2013-05-31 17:40:00,79.9,67.9,29.85,East,91,0.0,8.0,67,0.00,,,0.00,Weather View 32 v70,2013-05-31 22:40:00,
2013-05-31 17:45:00,79.9,67.5,29.85,East,85,4.0,8.0,66,0.00,,,0.00,Weather View 32 v70,2013-05-31 22:45:00,
2013-05-31 17:50:00,79.5,67.1,29.85,ESE,103,3.0,8.0,66,0.00,,,0.00,Weather View 32 v70,2013-05-31 22:50:00,
2013-05-31 17:55:00,79.3,67.4,29.85,East,96,3.0,8.0,67,0.00,,,0.00,Weather View 32 v70,2013-05-31 22:55:00,
2013-05-31 18:00:00,79.0,67.0,29.85,ESE,102,5.0,8.0,67,0.00,,,0.00,Weather View 32 v70,2013-05-31 23:00:00,
2013-05-31 18:10:00,78.8,67.3,29.85,ESE,110,0.0,8.0,68,0.00,,,0.00,Weather View 32 v70,2013-05-31 23:10:00,
2013-05-31 18:20:00,79.2,67.6,29.85,East,96,4.0,8.0,68,0.00,,,0.00,Weather View 32 v70,2013-05-31 23:20:00,
2013-05-31 18:30:00,79.2,67.2,29.85,East,91,4.0,8.0,67,0.00,,,0.00,Weather View 32 v70,2013-05-31 23:30:00,
2013-05-31 18:40:00,78.8,66.9,29.85,ESE,105,4.0,8.0,67,0.00,,,0.00,Weather View 32 v70,2013-05-31 23:40:00,
2013-05-31 18:50:00,78.6,67.1,29.85,ENE,64,6.0,8.0,68,0.00,,,0.00,Weather View 32 v70,2013-05-31 23:50:00,
2013-05-31 19:00:00,78.4,67.4,29.85,East,87,3.0,8.0,69,0.00,,,0.00,Weather View 32 v70,2013-06-01 00:00:00,
2013-05-31 19:05:00,78.3,67.2,29.85,ENE,74,5.0,7.0,69,0.00,,,0.00,Weather View 32 v70,2013-06-01 00:05:00,
2013-05-31 19:15:00,77.9,67.3,29.85,East,84,6.0,7.0,70,0.00,,,0.00,Weather View 32 v70,2013-06-01 00:15:00,
2013-05-31 19:20:00,77.9,67.3,29.85,East,89,3.0,7.0,70,0.00,,,0.00,Weather View 32 v70,2013-06-01 00:20:00,
2013-05-31 19:30:00,77.7,67.5,29.85,East,89,2.0,7.0,71,0.00,,,0.00,Weather View 32 v70,2013-06-01 00:30:00,
2013-05-31 19:40:00,77.5,67.4,29.85,East,84,0.0,7.0,71,0.00,,,0.00,Weather View 32 v70,2013-06-01 00:40:00,
2013-05-31 19:50:00,77.4,67.6,29.85,East,85,0.0,7.0,72,0.00,,,0.00,Weather View 32 v70,2013-06-01 00:50:00,
2013-05-31 19:55:00,77.4,67.6,29.85,East,86,0.0,7.0,72,0.00,,,0.00,Weather View 32 v70,2013-06-01 00:55:00,
2013-05-31 20:00:00,77.2,67.4,29.85,East,86,0.0,7.0,72,0.00,,,0.00,Weather View 32 v70,2013-06-01 01:00:00,
2013-05-31 20:10:00,77.0,67.6,29.85,East,85,0.0,6.0,73,0.00,,,0.00,Weather View 32 v70,2013-06-01 01:10:00,
2013-05-31 20:20:00,76.8,67.9,29.85,East,86,0.0,4.0,74,0.00,,,0.00,Weather View 32 v70,2013-06-01 01:20:00,
2013-05-31 20:30:00,76.8,67.9,29.85,East,86,3.0,4.0,74,0.00,,,0.00,Weather View 32 v70,2013-06-01 01:30:00,
2013-05-31 20:40:00,76.6,68.1,29.85,East,95,0.0,4.0,75,0.00,,,0.00,Weather View 32 v70,2013-06-01 01:40:00,
2013-05-31 20:45:00,76.6,68.1,29.85,East,95,0.0,4.0,75,0.00,,,0.00,Weather View 32 v70,2013-06-01 01:45:00,
2013-05-31 20:50:00,76.5,67.9,29.85,East,95,0.0,4.0,75,0.00,,,0.00,Weather View 32 v70,2013-06-01 01:50:00,
2013-05-31 21:00:00,76.5,67.9,29.85,East,92,0.0,4.0,75,0.00,,,0.00,Weather View 32 v70,2013-06-01 02:00:00,
2013-05-31 21:10:00,76.3,67.7,29.85,East,83,0.0,4.0,75,0.00,,,0.00,Weather View 32 v70,2013-06-01 02:10:00,
2013-05-31 21:20:00,76.1,67.6,29.85,East,83,0.0,4.0,75,0.00,,,0.00,Weather View 32 v70,2013-06-01 02:20:00,
2013-05-31 21:30:00,76.1,68.0,29.85,East,83,0.0,4.0,76,0.00,,,0.00,Weather View 32 v70,2013-06-01 02:30:00,
2013-05-31 21:40:00,75.9,67.8,29.85,East,83,0.0,0.0,76,0.00,,,0.00,Weather View 32 v70,2013-06-01 02:40:00,
2013-05-31 21:50:00,75.9,67.8,29.85,East,83,0.0,0.0,76,0.00,,,0.00,Weather View 32 v70,2013-06-01 02:50:00,
2013-05-31 21:55:00,75.7,67.6,29.85,East,83,0.0,0.0,76,0.00,,,0.00,Weather View 32 v70,2013-06-01 02:55:00,
2013-05-31 22:00:00,75.7,68.0,29.85,East,83,0.0,0.0,77,0.00,,,0.00,Weather View 32 v70,2013-06-01 03:00:00,
2013-05-31 22:05:00,75.7,68.0,29.85,East,83,0.0,0.0,77,0.00,,,0.00,Weather View 32 v70,2013-06-01 03:05:00,
2013-05-31 22:15:00,75.7,68.0,29.85,East,83,0.0,0.0,77,0.00,,,0.00,Weather View 32 v70,2013-06-01 03:15:00,
2013-05-31 22:20:00,75.7,68.0,29.85,East,83,0.0,0.0,77,0.00,,,0.00,Weather View 32 v70,2013-06-01 03:20:00,
2013-05-31 22:25:00,75.7,68.0,29.85,East,83,0.0,0.0,77,0.00,,,0.00,Weather View 32 v70,2013-06-01 03:25:00,
2013-05-31 22:35:00,75.7,68.0,29.85,East,83,0.0,0.0,77,0.00,,,0.00,Weather View 32 v70,2013-06-01 03:35:00,
2013-05-31 22:40:00,75.7,68.0,29.85,East,83,0.0,0.0,77,0.00,,,0.00,Weather View 32 v70,2013-06-01 03:40:00,
2013-05-31 22:45:00,75.7,68.0,29.85,East,84,0.0,0.0,77,0.00,,,0.00,Weather View 32 v70,2013-06-01 03:45:00,
2013-05-31 22:50:00,75.7,68.0,29.85,East,84,0.0,0.0,77,0.00,,,0.00,Weather View 32 v70,2013-06-01 03:50:00,
2013-05-31 22:55:00,75.7,67.6,29.85,East,84,0.0,0.0,76,0.00,,,0.00,Weather View 32 v70,2013-06-01 03:55:00,
2013-05-31 23:00:00,75.6,67.4,29.85,East,84,0.0,0.0,76,0.00,,,0.00,Weather View 32 v70,2013-06-01 04:00:00,
2013-05-31 23:05:00,75.6,67.4,29.85,East,83,0.0,0.0,76,0.00,,,0.00,Weather View 32 v70,2013-06-01 04:05:00,
2013-05-31 23:15:00,75.6,67.4,29.85,East,83,0.0,0.0,76,0.00,,,0.00,Weather View 32 v70,2013-06-01 04:15:00,
2013-05-31 23:25:00,75.4,67.6,29.85,East,83,0.0,0.0,77,0.00,,,0.00,Weather View 32 v70,2013-06-01 04:25:00,
2013-05-31 23:26:00,75.4,67.6,29.85,East,83,0.0,0.0,77,0.00,,,0.00,Weather View 32 v70,2013-06-01 04:26:00,
2013-05-31 23:30:00,75.4,67.6,29.85,East,84,0.0,0.0,77,0.00,,,0.00,Weather View 32 v70,2013-06-01 04:30:00,
2013-05-31 23:35:00,75.2,67.5,29.85,East,84,0.0,0.0,77,0.00,,,0.00,Weather View 32 v70,2013-06-01 04:35:00,
2013-05-31 23:40:00,75.2,67.5,29.83,East,84,0.0,0.0,77,0.00,,,0.00,Weather View 32 v70,2013-06-01 04:40:00,
2013-05-31 23:45:00,75.2,67.5,29.83,East,84,0.0,0.0,77,0.00,,,0.00,Weather View 32 v70,2013-06-01 04:45:00,
2013-05-31 23:55:00,75.0,67.7,29.83,East,84,0.0,0.0,78,0.00,,,0.00,Weather View 32 v70,2013-06-01 04:55:00,